Location: Hylvaty SDH
(49.9612°N, 16.4057°E)
Time: 12:46:26
(UTC+01:00)

Tiros 1 - Pass Details

Date: 10 October 2020
Orbit: 630 x 663 km, 48.4° (Epoch: 28 October)

Event Time Altitude Azimuth Distance (km) Brightness Sun altitude
Rises 13:39:06 0° 263° (W) 2,933 10.8 31.7°
Reaches altitude 10° 13:41:25 10° 262° (W) 2,029 10.1 31.6°
Maximum altitude 13:46:04 74° 178° (S) 672 8.1 31.4°
Drops below altitude 10° 13:50:48 10° 93° (E) 2,052 9.7 31.1°
Sets 13:53:09 0° 92° (E) 2,968 10.4 31.0°
